Хрустальный / Красный Луч

Украина / Луганская область     48°08′13″N   38°55′09″E
В апреле 2022 года жителям России запретили посещать сайт meteo.paraplan.net по решению Генеральной прокуратуры. Аудитория сайта уменьшилась в 10 раз. Владельцы сайта не видят смысла в поддержке погодного сервера в таких условиях. Сайт будет закрыт в октябре.
темп.,
°C
ветер,
м/с
пор.,
м/с
влажн.,
%
обл.,
%
осадки,
мм/ч
давл.,
гПа
погр.,
м
4 октября, вт
вт400:00+11ю3782100 0.0 1013164
03:00+11ююв3986100 0.0 1013236
06:00+10ю3883100 0.0 1014213
09:00+11ю41088100 0.9 1015446
12:00+12ю4883100 0.4 1015376
15:00+15ю57615 0.5 1015815
18:00+13ююз347330 0.0 101675
21:00+11ююз368583 0.0 1018107
5 октября, ср
ср500:00+10зсз36800 0.0 1019127
03:00+8зсз22770 0.0 102127
06:00+7зюз22773 0.0 102218
09:00+11зюз365936 0.0 1022399
12:00+15зюз57470 0.0 10231369
15:00+16зюз684532 0.0 10221780
18:00+13зсз485461 0.0 1023266
21:00+11з366136 0.0 1024105
6 октября, чт
чт600:00+10зсз22657 0.0 102523
03:00+9сз227398 0.0 102618
06:00+8зсз2277100 0.0 102617
09:00+11з236695 0.0 1026349
12:00+15з34519 0.0 10251265
15:00+16сз344799 0.0 10241500
18:00+13з225813 0.0 102512
21:00+12зюз22635 0.0 102511
7 октября, пт
пт700:00+11юз22675 0.0 102617
03:00+10зюз22705 0.0 102619
06:00+10зюз22711 0.0 102514
09:00+14зюз23565 0.0 1025261
12:00+18зсз234457 0.0 10251051
15:00+19сз22395 0.0 10241389
18:00+16с225264 0.0 102418
21:00+14св226070 0.0 102526
8 октября, сб
сб800:00+12св336888 0.0 102545
03:00+11св357588 0.0 102571
06:00+10всв3578100 0.0 102596
09:00+14в4862100 0.0 1025320
12:00+18в6746100 0.0 10231036
15:00+19в784136 0.0 10211459
18:00+15в494853 0.0 1021180
21:00+13в41253100 0.0 1021260